Hosur Weather Report :
Hosur Weather and Climate Updates, Stay informed with the latest updates on Hosur's climate and weather conditions. Whether you're planning your day or looking ahead, we've got you covered with comprehensive weather news and live updates.

Weather Data from the Last 24 Hours

Time (IST) Outdoor Temp (°C) Dew Point (°C) Wind Speed (km/h) Wind Gust (km/h) Wind Direction Relative Pressure (hPa) Absolute Pressure (hPa) Daily Rain (mm) UV Index Solar Radiation (W/m²) Humidity (%)
2026-05-07 05:05:00 21.9 21.2 0 0 SE 1014.9 913.11 0 0 0 96
2026-05-07 05:02:00 21.9 21.2 0 0 SE 1014.7 912.9 0 0 0 96
2026-05-07 04:59:00 21.9 21.2 0 0 SE 1014.49 912.7 0 0 0 96
2026-05-07 04:56:00 21.9 21.2 2.2 3.6 SE 1014.6 912.8 0 0 0 96
2026-05-07 04:53:00 21.9 21.2 5.4 5.4 SSE 1014.49 912.7 0 0 0 96
2026-05-07 04:50:00 21.9 21.2 0.4 1.8 SSE 1014.6 912.8 0 0 0 96
2026-05-07 04:48:00 21.9 21.2 0.7 1.8 SE 1014.49 912.7 0 0 0 96
2026-05-07 04:44:00 21.9 21.2 4 5.4 SE 1014.19 912.4 0 0 0 96
2026-05-07 04:41:00 21.9 21.2 7.6 9.4 SE 1014.19 912.4 0 0 0 96
2026-05-07 04:38:00 21.9 21.2 3.2 5.4 SE 1014.09 912.29 0 0 0 96
2026-05-07 04:35:00 22 21.3 2.9 3.6 SE 1014.19 912.4 0 0 0 96
2026-05-07 04:32:00 22 21.3 3.6 3.6 SSE 1014.09 912.29 0 0 0 96
2026-05-07 04:29:00 22 21.3 2.5 3.6 SE 1014.09 912.29 0 0 0 96
2026-05-07 04:26:00 22 21.3 8.3 11.2 SE 1014.09 912.29 0 0 0 96
2026-05-07 04:23:00 21.9 21.2 4 5.4 ESE 1013.99 912.19 0 0 0 96
2026-05-07 04:20:00 22 21.3 8.6 11.2 SE 1013.99 912.19 0 0 0 96
2026-05-07 04:17:00 22 21.3 5.4 7.2 ESE 1013.89 912.09 0 0 0 96
2026-05-07 04:14:00 22 21.3 3.2 5.4 SE 1013.89 912.09 0 0 0 96
2026-05-07 04:11:00 22 21.3 7.9 11.2 SSE 1013.82 911.99 0 0 0 96
2026-05-07 04:08:00 22.1 21.4 2.9 5.4 SE 1013.82 911.99 0 0 0 96
2026-05-07 04:05:00 22.1 21.4 1.8 3.6 SE 1013.82 911.99 0 0 0 96
2026-05-07 04:02:00 22.1 21.4 4.7 5.4 SE 1013.82 911.99 0 0 0 96
2026-05-07 03:59:00 22.1 21.4 2.2 3.6 SE 1013.89 912.09 0 0 0 96
2026-05-07 03:56:00 22.1 21.4 6.8 9.4 SSE 1013.82 911.99 0 0 0 96
2026-05-07 03:53:00 22.1 21.3 3.6 3.6 SE 1013.41 911.62 0 0 0 95
2026-05-07 03:50:00 22.1 21.3 2.9 5.4 SE 1013.51 911.72 0 0 0 95
2026-05-07 03:48:00 22.1 21.3 4.3 5.4 SE 1013.61 911.79 0 0 0 95
2026-05-07 03:44:00 22.2 21.4 2.2 3.6 SE 1013.61 911.79 0 0 0 95
2026-05-07 03:41:00 22.1 21.3 5 7.2 ESE 1013.51 911.72 0 0 0 95
2026-05-07 03:38:00 22.2 21.4 7.9 13 ESE 1013.61 911.79 0 0 0 95
2026-05-07 03:35:00 22.2 21.4 9.4 11.2 ESE 1013.51 911.72 0 0 0 95
2026-05-07 03:32:00 22.2 21.4 7.2 9.4 SE 1013.61 911.79 0 0 0 95
2026-05-07 03:29:00 22.3 21.3 2.2 3.6 SE 1013.82 911.99 0 0 0 94
2026-05-07 03:26:00 22.3 21.3 5.8 7.2 SE 1013.99 912.19 0 0 0 94
2026-05-07 03:23:00 22.3 21.3 6.1 7.2 SE 1013.82 911.99 0 0 0 94
2026-05-07 03:20:00 22.3 21.3 6.5 7.2 SE 1013.89 912.09 0 0 0 94
2026-05-07 03:17:00 22.4 21.4 6.5 9.4 SSE 1013.72 911.89 0 0 0 94
2026-05-07 03:14:00 22.4 21.4 4.7 9.4 SSE 1013.72 911.89 0 0 0 94
2026-05-07 03:11:00 22.4 21.4 5.4 9.4 SSE 1013.72 911.89 0 0 0 94
2026-05-07 03:08:00 22.4 21.4 4 5.4 SE 1013.72 911.89 0 0 0 94
2026-05-07 03:05:00 22.4 21.4 8.6 11.2 SE 1013.89 912.09 0 0 0 94
2026-05-07 03:02:00 22.5 21.5 5.8 7.2 S 1013.89 912.09 0 0 0 94
2026-05-07 02:59:00 22.5 21.5 3.6 7.2 SSE 1013.89 912.09 0 0 0 94
2026-05-07 02:56:00 22.5 21.5 4.7 5.4 SE 1014.19 912.4 0 0 0 94
2026-05-07 02:53:00 22.5 21.5 4.7 5.4 SE 1014.19 912.4 0 0 0 94
2026-05-07 02:50:00 22.5 21.5 5 7.2 SE 1013.99 912.19 0 0 0 94
2026-05-07 02:47:00 22.5 21.5 4.3 7.2 ESE 1014.19 912.4 0 0 0 94
2026-05-07 02:44:00 22.5 21.5 3.6 5.4 SE 1014.09 912.29 0 0 0 94
2026-05-07 02:41:00 22.5 21.5 6.8 9.4 SE 1014.09 912.29 0 0 0 94
2026-05-07 02:38:00 22.5 21.5 5.8 7.2 E 1014.09 912.29 0 0 0 94
2026-05-07 02:35:00 22.5 21.5 6.8 9.4 ESE 1014.19 912.4 0 0 0 94
2026-05-07 02:32:00 22.5 21.5 0 0 SE 1014.19 912.4 0 0 0 94
2026-05-07 02:29:00 22.5 21.5 5 5.4 SE 1014.39 912.6 0 0 0 94
2026-05-07 02:26:00 22.4 21.4 9 9.4 SE 1014.29 912.5 0 0 0 94
2026-05-07 02:23:00 22.5 21.5 8.6 9.4 SE 1014.29 912.5 0 0 0 94
2026-05-07 02:20:00 22.5 21.5 1.4 5.4 ESE 1014.39 912.6 0 0 0 94
2026-05-07 02:17:00 22.5 21.5 4.7 5.4 SE 1014.29 912.5 0 0 0 94
2026-05-07 02:14:00 22.5 21.5 11.2 13 E 1014.09 912.29 0 0 0 94
2026-05-07 02:11:00 22.5 21.5 4 5.4 SE 1014.09 912.29 0 0 0 94
2026-05-07 02:08:00 22.5 21.5 6.8 9.4 ESE 1014.09 912.29 0 0 0 94
2026-05-07 02:05:00 22.5 21.5 4 5.4 SE 1014.09 912.29 0 0 0 94
2026-05-07 02:02:00 22.5 21.5 3.6 5.4 E 1014.19 912.4 0 0 0 94
2026-05-07 01:59:00 22.5 21.5 0.4 1.8 ESE 1014.29 912.5 0 0 0 94
2026-05-07 01:56:00 22.5 21.5 7.2 9.4 ESE 1014.29 912.5 0 0 0 94
2026-05-07 01:53:00 22.5 21.5 8.6 11.2 ESE 1014.39 912.6 0 0 0 94
2026-05-07 01:50:00 22.6 21.6 3.6 5.4 ESE 1014.49 912.7 0 0 0 94
2026-05-07 01:47:00 22.6 21.6 3.6 5.4 ESE 1014.49 912.7 0 0 0 94
2026-05-07 01:45:00 22.6 21.6 7.2 9.4 ESE 1014.39 912.6 0 0 0 94
2026-05-07 01:41:00 22.6 21.6 4.3 5.4 E 1014.29 912.5 0 0 0 94
2026-05-07 01:38:00 22.6 21.4 5.4 7.2 ESE 1014.39 912.6 0 0 0 93
2026-05-07 01:35:00 22.7 21.5 7.2 9.4 SE 1014.39 912.6 0 0 0 93
2026-05-07 01:32:00 22.7 21.5 6.5 9.4 ESE 1014.39 912.6 0 0 0 93
2026-05-07 01:29:00 22.7 21.5 3.2 5.4 E 1014.6 912.8 0 0 0 93
2026-05-07 01:26:00 22.7 21.4 9.4 11.2 SE 1014.7 912.9 0 0 0 92
2026-05-07 01:23:00 22.7 21.4 4.7 7.2 E 1014.6 912.8 0 0 0 92
2026-05-07 01:20:00 22.7 21.4 6.1 7.2 ESE 1014.8 913.01 0 0 0 92
2026-05-07 01:17:00 22.8 21.4 5 7.2 SE 1014.8 913.01 0 0 0 92
2026-05-07 01:14:00 22.8 21.4 5.4 7.2 E 1014.9 913.11 0 0 0 92
2026-05-07 01:11:00 22.8 21.4 2.9 5.4 SE 1014.9 913.11 0 0 0 92
2026-05-07 01:08:00 22.8 21.4 3.6 5.4 SE 1015 913.21 0 0 0 92
2026-05-07 01:05:00 22.8 21.4 4.7 7.2 SE 1015 913.21 0 0 0 92
2026-05-07 01:02:00 22.8 21.4 4.3 5.4 SE 1015.1 913.31 0 0 0 92
2026-05-07 00:59:00 22.8 21.4 3.6 5.4 SE 1015.1 913.31 0 0 0 92
2026-05-07 00:56:00 22.8 21.4 4 5.4 SE 1015.1 913.31 0 0 0 92
2026-05-07 00:53:00 22.9 21.3 4 5.4 ESE 1014.8 913.01 0 0 0 91
2026-05-07 00:50:00 22.9 21.3 13.7 16.6 ESE 1015.1 913.31 0 0 0 91
2026-05-07 00:47:00 22.9 21.3 6.5 7.2 ESE 1015.1 913.31 0 0 0 91
2026-05-07 00:45:00 22.9 21.3 5.8 7.2 SSE 1014.9 913.11 0 0 0 91
2026-05-07 00:41:00 22.9 21.3 4 5.4 SSE 1015.1 913.31 0 0 0 91
2026-05-07 00:38:00 23 21.5 3.2 5.4 ESE 1015.1 913.31 0 0 0 91
2026-05-07 00:35:00 23 21.5 3.2 3.6 ESE 1015 913.21 0 0 0 91
2026-05-07 00:32:00 23 21.5 7.2 9.4 SE 1015.1 913.31 0 0 0 91
2026-05-07 00:29:00 23 21.5 5.8 9.4 ESE 1014.9 913.11 0 0 0 91
2026-05-07 00:26:00 23 21.5 6.8 9.4 SE 1015 913.21 0 0 0 91
2026-05-07 00:23:00 23 21.5 16.2 18.4 E 1014.9 913.11 0 0 0 91
2026-05-07 00:20:00 23.1 21.6 12.2 14.8 ESE 1015 913.21 0 0 0 91
2026-05-07 00:17:00 23.1 21.4 8.3 11.2 SE 1015.21 913.41 0 0 0 90
2026-05-07 00:14:00 23.1 21.4 7.6 9.4 SE 1015.1 913.31 0 0 0 90
2026-05-07 00:11:00 23.1 21.4 7.6 11.2 ESE 1014.9 913.11 0 0 0 90
2026-05-07 00:08:00 23.1 21.4 5.4 9.4 SE 1015.1 913.31 0 0 0 90
2026-05-07 00:05:00 23 21.3 4.7 7.2 SE 1015 913.21 0 0 0 90
2026-05-07 00:02:00 23 21.3 10.1 16.6 E 1015.31 913.51 0 0 0 90
2026-05-06 23:59:00 23 21.5 11.2 14.8 ESE 1015.31 913.51 0 0 0 91
2026-05-06 23:56:00 23 21.5 7.9 13 SE 1015.51 913.72 0 0 0 91
2026-05-06 23:53:00 23 21.5 6.8 9.4 E 1015.21 913.41 0 0 0 91
2026-05-06 23:50:00 23 21.5 11.2 13 ESE 1015.61 913.82 0 0 0 91
2026-05-06 23:47:00 23.1 21.6 4.7 11.2 SE 1015.41 913.61 0 0 0 91
2026-05-06 23:45:00 23.1 21.6 10.4 13 ESE 1015.41 913.61 0 0 0 91
2026-05-06 23:41:00 23.1 21.6 6.5 9.4 ESE 1015.51 913.72 0 0 0 91
2026-05-06 23:38:00 23.1 21.6 6.1 7.2 SE 1015.41 913.61 0 0 0 91
2026-05-06 23:35:00 23.1 21.6 3.6 5.4 ESE 1015.51 913.72 0 0 0 91
2026-05-06 23:32:00 23.1 21.6 5.4 7.2 SE 1015.41 913.61 0 0 0 91
2026-05-06 23:29:00 23.1 21.6 5.4 5.4 SE 1015.51 913.72 0 0 0 91
2026-05-06 23:26:00 23.1 21.6 7.2 9.4 SE 1015.51 913.72 0 0 0 91
2026-05-06 23:23:00 23.1 21.6 11.2 14.8 SE 1015.41 913.61 0 0 0 91
2026-05-06 23:20:00 23.1 21.6 8.6 9.4 SE 1015.41 913.61 0 0 0 91
2026-05-06 23:17:00 23.2 21.7 3.6 5.4 SE 1015.31 913.51 0 0 0 91
2026-05-06 23:14:00 23.2 21.7 4.7 7.2 SE 1015.31 913.51 0 0 0 91
2026-05-06 23:11:00 23.2 21.7 5.4 11.2 ESE 1015.41 913.61 0 0 0 91
2026-05-06 23:08:00 23.2 21.7 6.5 7.2 ESE 1015.31 913.51 0 0 0 91
2026-05-06 23:05:00 23.2 21.5 6.5 11.2 ESE 1015.41 913.61 0 0 0 90
2026-05-06 23:02:00 23.3 21.7 3.6 5.4 E 1015.51 913.72 0 0 0 91
2026-05-06 22:59:00 23.3 21.5 11.9 13 SE 1015.51 913.72 0 0 0 90
2026-05-06 22:56:00 23.3 21.5 8.6 13 SSE 1015.51 913.72 0 0 0 90
2026-05-06 22:53:00 23.3 21.5 4.7 7.2 SE 1015.82 913.99 0 0 0 90
2026-05-06 22:50:00 23.4 21.7 10.8 14.8 SE 1015.82 913.99 0 0 0 90
2026-05-06 22:47:00 23.4 21.7 6.8 11.2 ESE 1015.82 913.99 0 0 0 90
2026-05-06 22:45:00 23.4 21.5 4.7 5.4 ESE 1015.71 913.89 0 0 0 89
2026-05-06 22:41:00 23.4 21.5 6.1 7.2 E 1015.71 913.89 0 0 0 89
2026-05-06 22:38:00 23.4 21.5 8.6 9.4 E 1015.82 913.99 0 0 0 89
2026-05-06 22:35:00 23.5 21.6 7.2 11.2 SE 1015.82 913.99 0 0 0 89
2026-05-06 22:32:00 23.5 21.6 5.4 7.2 SE 1015.82 913.99 0 0 0 89
2026-05-06 22:29:00 23.5 21.6 9.4 11.2 SE 1015.92 914.09 0 0 0 89
2026-05-06 22:26:00 23.5 21.4 10.1 14.8 ESE 1015.71 913.89 0 0 0 88
2026-05-06 22:23:00 23.5 21.4 9.4 11.2 SSE 1015.92 914.09 0 0 0 88
2026-05-06 22:20:00 23.6 21.5 4.7 5.4 ENE 1015.82 913.99 0 0 0 88
2026-05-06 22:17:00 23.6 21.5 7.2 11.2 SE 1015.71 913.89 0 0 0 88
2026-05-06 22:14:00 23.6 21.5 5.8 7.2 ESE 1015.61 913.82 0 0 0 88
2026-05-06 22:11:00 23.6 21.5 14 16.6 SE 1015.82 913.99 0 0 0 88
2026-05-06 22:08:00 23.6 21.5 11.2 13 ESE 1015.82 913.99 0 0 0 88
2026-05-06 22:05:00 23.7 21.6 8.3 11.2 ESE 1015.82 913.99 0 0 0 88
2026-05-06 22:02:00 23.7 21.4 4 7.2 SE 1015.92 914.09 0 0 0 87
2026-05-06 21:59:00 23.7 21.4 2.9 5.4 ESE 1015.82 913.99 0 0 0 87
2026-05-06 21:56:00 23.8 21.5 2.9 5.4 ESE 1015.82 913.99 0 0 0 87
2026-05-06 21:53:00 23.8 21.5 4 5.4 SE 1015.61 913.82 0 0 0 87
2026-05-06 21:50:00 23.9 21.6 4 7.2 SSE 1015.51 913.72 0 0 0 87
2026-05-06 21:47:00 23.8 21.5 5.4 9.4 SE 1015.71 913.89 0 0 0 87
2026-05-06 21:44:00 23.9 21.6 10.4 16.6 E 1015.82 913.99 0 0 0 87
2026-05-06 21:42:00 23.9 21.8 5.4 7.2 E 1015.82 913.99 0 0 0 88
2026-05-06 21:38:00 23.9 21.8 14.4 16.6 ESE 1015.82 913.99 0 0 0 88
2026-05-06 21:35:00 24 21.7 7.2 7.2 ESE 1015.92 914.09 0 0 0 87
2026-05-06 21:32:00 24 21.7 6.5 9.4 SE 1015.92 914.09 0 0 0 87
2026-05-06 21:29:00 24 21.7 8.3 9.4 SE 1015.98 914.19 0 0 0 87
2026-05-06 21:26:00 24 21.7 6.5 11.2 SE 1015.82 913.99 0 0 0 87
2026-05-06 21:23:00 24.1 21.6 4.3 5.4 ESE 1015.61 913.82 0 0 0 86
2026-05-06 21:20:00 24 21.5 4 5.4 ESE 1015.51 913.72 0 0 0 86
2026-05-06 21:17:00 24 21.5 4 5.4 ESE 1015.71 913.89 0 0 0 86
2026-05-06 21:14:00 24.1 21.6 8.6 11.2 SE 1015.51 913.72 0 0 0 86
2026-05-06 21:11:00 24 21.3 5.4 7.2 SE 1015.51 913.72 0 0 0 85
2026-05-06 21:08:00 24 21.3 4 5.4 SE 1015.41 913.61 0 0 0 85
2026-05-06 21:05:00 24 21.3 6.8 11.2 ESE 1015.61 913.82 0 0 0 85
2026-05-06 21:02:00 24 21.3 4.7 7.2 ESE 1015.41 913.61 0 0 0 85
2026-05-06 20:59:00 24 21.3 9.7 11.2 SE 1015.41 913.61 0 0 0 85
2026-05-06 20:56:00 24 21.3 5 5.4 ESE 1015.21 913.41 0 0 0 85
2026-05-06 20:53:00 24 21.3 11.2 13 SE 1015.21 913.41 0 0 0 85
2026-05-06 20:50:00 23.9 21.2 11.5 13 SE 1015.21 913.41 0 0 0 85
2026-05-06 20:47:00 23.9 21.2 9 11.2 ESE 1015.31 913.51 0 0 0 85
2026-05-06 20:44:00 24 21.3 9 11.2 SE 1015.31 913.51 0 0 0 85
2026-05-06 20:41:00 23.9 21.2 5.8 7.2 ESE 1015.31 913.51 0 0 0 85
2026-05-06 20:38:00 23.9 21 9.4 11.2 SSE 1015.51 913.72 0 0 0 84
2026-05-06 20:35:00 23.9 21 8.6 9.4 SE 1015.21 913.41 0 0 0 84
2026-05-06 20:32:00 23.9 21 4.7 5.4 SE 1015.31 913.51 0 0 0 84
2026-05-06 20:29:00 24 21.1 9.7 13 ESE 1015.21 913.41 0 0 0 84
2026-05-06 20:26:00 24.1 21.2 6.1 9.4 ESE 1015 913.21 0 0 0 84
2026-05-06 20:23:00 24.2 21.1 8.3 11.2 SE 1014.9 913.11 0 0 0 83
2026-05-06 20:20:00 24.3 21 14.4 16.6 ESE 1015 913.21 0 0 0 82
2026-05-06 20:17:00 24.6 21.1 11.2 16.6 SE 1014.9 913.11 0 0 0 81
2026-05-06 20:14:00 24.8 21.1 7.2 9.4 ESE 1014.9 913.11 0 0 0 80
2026-05-06 20:11:00 24.9 21 6.1 9.4 SE 1014.8 913.01 0 0 0 79
2026-05-06 20:08:00 24.9 20.8 2.2 3.6 SE 1014.8 913.01 0 0 0 78
2026-05-06 20:05:00 25 20.9 5.4 7.2 ESE 1014.7 912.9 0 0 0 78
2026-05-06 20:02:00 25.1 21 4 5.4 E 1014.7 912.9 0 0 0 78
2026-05-06 19:59:00 25.2 20.9 4 5.4 E 1014.7 912.9 0 0 0 77
2026-05-06 19:56:00 25.2 20.9 5.4 9.4 ESE 1014.7 912.9 0 0 0 77
2026-05-06 19:53:00 25.3 20.9 4.7 7.2 ESE 1014.7 912.9 0 0 0 77
2026-05-06 19:50:00 25.4 20.8 9.4 11.2 ESE 1014.7 912.9 0 0 0 76
2026-05-06 19:47:00 25.7 21 9.7 13 ENE 1014.8 913.01 0 0 0 75
2026-05-06 19:44:00 25.9 20.9 4.3 7.2 SE 1014.8 913.01 0 0 0 74
2026-05-06 19:41:00 25.9 20.9 7.6 11.2 E 1014.9 913.11 0 0 0 74
2026-05-06 19:39:00 26 20.8 3.2 5.4 E 1014.7 912.9 0 0 0 73
2026-05-06 19:35:00 26 20.8 3.6 3.6 ESE 1014.39 912.6 0 0 0 73
2026-05-06 19:32:00 26.1 20.7 9.7 13 ESE 1014.6 912.8 0 0 0 72
2026-05-06 19:29:00 26.1 20.7 4.7 5.4 E 1014.6 912.8 0 0 0 72
2026-05-06 19:26:00 26.2 20.8 5.8 9.4 ESE 1014.39 912.6 0 0 0 72
2026-05-06 19:23:00 26.3 20.6 11.2 14.8 E 1014.29 912.5 0 0 0 71
2026-05-06 19:20:00 26.4 20.7 7.6 11.2 ESE 1014.49 912.7 0 0 0 71
2026-05-06 19:17:00 26.5 20.6 10.4 13 ESE 1014.39 912.6 0 0 0 70
2026-05-06 19:14:00 26.5 20.3 9 11.2 ESE 1014.09 912.29 0 0 0 69
2026-05-06 19:11:00 26.6 20.7 4 7.2 SE 1014.09 912.29 0 0 0 70
2026-05-06 19:08:00 26.9 20.9 7.6 13 ESE 1014.09 912.29 0 0 0 70
2026-05-06 19:05:00 27 20.8 11.2 16.6 SE 1014.09 912.29 0 0 0 69
2026-05-06 19:02:00 27.1 20.9 6.8 7.2 E 1013.99 912.19 0 0 0.01 69
2026-05-06 18:59:00 27.2 21 5 5.4 SE 1014.19 912.4 0 0 0.02 69
2026-05-06 18:56:00 27.4 21 5.4 7.2 E 1013.99 912.19 0 0 0.02 68
2026-05-06 18:53:00 27.5 20.6 2.2 3.6 SE 1013.99 912.19 0 0 0.06 66
2026-05-06 18:50:00 27.5 20.3 2.2 3.6 ESE 1014.09 912.29 0 0 0.12 65
2026-05-06 18:47:00 27.7 20.5 1.4 1.8 SE 1013.89 912.09 0 0 0.28 65
2026-05-06 18:44:00 27.7 20.3 1.4 3.6 SE 1013.89 912.09 0 0 0.73 64
2026-05-06 18:41:00 27.8 20.1 5 5.4 SE 1013.72 911.89 0 0 1.73 63
2026-05-06 18:39:00 27.8 20.1 4.7 7.2 SE 1013.72 911.89 0 0 2.9 63
2026-05-06 18:35:00 27.9 20.2 1.8 3.6 SE 1013.51 911.72 0 0 5.67 63
2026-05-06 18:32:00 27.9 19.9 2.9 3.6 ESE 1013.31 911.52 0 0 9 62
2026-05-06 18:29:00 27.9 19.9 2.2 3.6 SE 1012.9 911.11 0 0 10.73 62
2026-05-06 18:26:00 28 20 2.9 3.6 E 1012.7 910.91 0 0 14.22 62
2026-05-06 18:23:00 28 19.8 3.2 3.6 SE 1012.9 911.11 0 0 16.91 61
2026-05-06 18:20:00 28 19.8 0 0 SE 1012.8 911.01 0 0 19.17 61
2026-05-06 18:17:00 28.1 19.9 3.6 3.6 ESE 1012.8 911.01 0 0 21.44 61
2026-05-06 18:14:00 28.1 19.9 2.5 3.6 ESE 1012.8 911.01 0 0 24.26 61
2026-05-06 18:11:00 28.1 19.9 3.6 3.6 SE 1012.7 910.91 0 0 26.85 61
2026-05-06 18:08:00 28.1 19.9 0.4 1.8 SE 1012.6 910.8 0 0 29.72 61
2026-05-06 18:05:00 28.2 19.7 5 5.4 SE 1012.6 910.8 0 0 33.34 60
2026-05-06 18:02:00 28.1 19.9 1.1 1.8 ESE 1012.7 910.91 0 0 39.26 61
2026-05-06 17:59:00 28.1 19.9 5.8 7.2 SE 1012.6 910.8 0 0 45.75 61
2026-05-06 17:56:00 28.1 20.1 1.4 1.8 SE 1012.5 910.7 0 0 52.48 62
2026-05-06 17:53:00 28.1 20.4 0.4 1.8 SE 1012.29 910.5 0 0 60.05 63
2026-05-06 17:50:00 28 20.5 1.4 1.8 SE 1012.5 910.7 0 0 67.24 64
2026-05-06 17:47:00 27.9 20.4 2.5 3.6 SSE 1012.4 910.6 0 0 72.55 64
2026-05-06 17:44:00 28 20.8 4.7 7.2 SE 1012.29 910.5 0 0 79.68 65
2026-05-06 17:41:00 27.9 20.4 2.9 5.4 SSE 1012.29 910.5 0 0 87.1 64
2026-05-06 17:39:00 27.9 20.7 1.8 1.8 SSE 1012.29 910.5 0 0 91.75 65
2026-05-06 17:35:00 27.8 20.3 6.5 9.4 S 1012.4 910.6 0 0 100.46 64
2026-05-06 17:32:00 27.9 20.9 4 5.4 S 1012.5 910.7 0 1 106.57 66
2026-05-06 17:29:00 27.9 21.2 4.3 5.4 SE 1012.4 910.6 0 1 112.12 67
2026-05-06 17:26:00 28 21.3 4.7 5.4 SE 1012.4 910.6 0 1 119.79 67
2026-05-06 17:23:00 27.9 20.9 3.6 5.4 SE 1012.29 910.5 0 1 125.28 66
2026-05-06 17:20:00 27.9 20.9 6.5 7.2 SE 1012.5 910.7 0 1 129.52 66
2026-05-06 17:17:00 27.8 20.8 7.2 13 SSE 1012.4 910.6 0 1 136.85 66
2026-05-06 17:14:00 28.1 20.9 9.7 14.8 ESE 1012.6 910.8 0 1 147.88 65
2026-05-06 17:11:00 28.2 20.5 9.4 13 SE 1012.6 910.8 0 1 159.3 63
2026-05-06 17:08:00 28.2 20.5 8.6 11.2 ENE 1012.6 910.8 0 1 161.77 63
2026-05-06 17:05:00 28.2 20.8 4.7 7.2 SE 1012.6 910.8 0 1 168.82 64
2026-05-06 17:02:00 28.3 20.8 7.2 9.4 SE 1012.7 910.91 0 1 170.93 64
2026-05-06 16:59:00 28.4 21.2 4.7 5.4 ENE 1012.7 910.91 0 1 169.72 65
2026-05-06 16:56:00 28.3 21.1 4.3 5.4 SE 1012.7 910.91 0 1 165.41 65
2026-05-06 16:53:00 28.3 20.8 11.5 14.8 E 1012.7 910.91 0 1 140.19 64
2026-05-06 16:50:00 28.3 21.1 4.7 7.2 E 1012.7 910.91 0 1 137.23 65
2026-05-06 16:47:00 28.2 21.3 2.5 5.4 ENE 1012.6 910.8 0 1 150.06 66
2026-05-06 16:44:00 28.1 21.4 8.6 11.2 ESE 1012.5 910.7 0 1 148.51 67
2026-05-06 16:41:00 28.3 21.3 6.8 11.2 NE 1012.4 910.6 0 1 147.17 66
2026-05-06 16:39:00 28.5 21.8 12.2 16.6 ESE 1012.5 910.7 0 1 145.04 67
2026-05-06 16:35:00 28.9 21.6 6.1 7.2 E 1012.5 910.7 0 1 155.34 65
2026-05-06 16:32:00 28.8 21 9.4 14.8 SSE 1012.5 910.7 0 2 233.73 63
2026-05-06 16:29:00 28.8 21 6.8 11.2 E 1012.4 910.6 0 2 206.35 63
2026-05-06 16:26:00 29.3 20.7 12.6 16.6 ENE 1012.4 910.6 0 1 182.42 60
2026-05-06 16:23:00 29.4 20.2 6.5 9.4 ESE 1012.5 910.7 0 1 191.59 58
2026-05-06 16:20:00 29.3 20.4 3.2 3.6 E 1012.5 910.7 0 1 196.69 59
2026-05-06 16:17:00 29.4 20.5 7.2 11.2 E 1012.29 910.5 0 1 186 59
2026-05-06 16:14:00 29.3 20.7 3.2 3.6 E 1012.29 910.5 0 1 178.64 60
2026-05-06 16:11:00 29.1 20.5 5.8 7.2 SE 1012.5 910.7 0 1 163.89 60
2026-05-06 16:08:00 29 20.4 5.8 9.4 ESE 1012.6 910.8 0 1 164.92 60
2026-05-06 16:05:00 29 20.4 5.4 11.2 E 1012.6 910.8 0 1 167.04 60
2026-05-06 16:02:00 28.9 20.6 2.5 5.4 E 1012.5 910.7 0 1 172.88 61
2026-05-06 15:59:00 28.7 20.4 5.8 9.4 ENE 1012.4 910.6 0 2 233.72 61
2026-05-06 15:56:00 28.6 20.3 4 5.4 SE 1012.4 910.6 0 2 211.67 61
2026-05-06 15:53:00 28.3 20 1.4 1.8 SE 1012.5 910.7 0 1 198.11 61
2026-05-06 15:50:00 28.1 20.1 4 5.4 E 1012.29 910.5 0 1 172.08 62
2026-05-06 15:47:00 27.9 20.4 3.6 3.6 SE 1012.8 911.01 0 1 137.98 64
2026-05-06 15:44:00 27.8 20.1 3.6 5.4 ENE 1012.5 910.7 0 1 155.22 63
2026-05-06 15:41:00 27.7 20.3 2.9 3.6 SE 1012.6 910.8 0 1 176.7 64
2026-05-06 15:38:00 27.8 20.1 9 16.6 ESE 1012.6 910.8 0 2 296.45 63
2026-05-06 15:36:00 28.1 20.4 4.3 5.4 ESE 1012.5 910.7 0 3 384.13 63
2026-05-06 15:32:00 28 19.5 4.3 7.2 ESE 1012.4 910.6 0 1 184.66 60
2026-05-06 15:29:00 27.6 18.6 6.8 9.4 ENE 1012.5 910.7 0 1 200.58 58
2026-05-06 15:26:00 27.4 18.9 6.1 7.2 ESE 1012.6 910.8 0 1 134.57 60
2026-05-06 15:23:00 27.4 19.5 5.4 7.2 SSE 1012.7 910.91 0 1 112.97 62
2026-05-06 15:20:00 27.9 20.2 9 11.2 ESE 1012.7 910.91 0 1 107.96 63
2026-05-06 15:17:00 28.6 20.9 7.6 9.4 NNE 1012.8 911.01 0 0 100.17 63
2026-05-06 15:14:00 28.9 20.1 8.3 11.2 NE 1012.5 910.7 0 0 97.41 59
2026-05-06 15:11:00 29.2 19.8 8.6 9.4 E 1012.7 910.91 0 0 102.23 57
2026-05-06 15:08:00 29.6 19.9 6.5 7.2 ESE 1012.9 911.11 0 1 115.12 56
2026-05-06 15:05:00 30 19.7 4.7 9.4 E 1013.11 911.31 0 1 154.55 54
2026-05-06 15:02:00 30.5 20.4 8.6 16.6 N 1012.9 911.11 0 1 167.1 55
2026-05-06 14:59:00 31.6 21.2 5.4 11.2 NNE 1012.8 911.01 0 1 175.87 54
2026-05-06 14:56:00 31.7 20.3 4.3 5.4 SE 1012.5 910.7 0 3 313.43 51
2026-05-06 14:53:00 31.8 20.7 5.4 9.4 E 1012.5 910.7 0 5 546.61 52
2026-05-06 14:50:00 31.5 20.4 1.1 1.8 ESE 1012.7 910.91 0 5 583.4 52
2026-05-06 14:47:00 31.1 20.4 4.7 7.2 ESE 1012.6 910.8 0 6 620.08 53
2026-05-06 14:44:00 30.8 20.4 1.4 1.8 ESE 1012.7 910.91 0 5 614.17 54
2026-05-06 14:41:00 30.8 20.7 3.6 5.4 SE 1012.9 911.11 0 3 363.81 55
2026-05-06 14:38:00 31.1 20.4 5.4 7.2 SSE 1012.8 911.01 0 4 421.14 53
2026-05-06 14:35:00 30.8 20.7 9.7 13 SE 1012.6 910.8 0 6 648.17 55
2026-05-06 14:32:00 30.7 20.6 3.6 3.6 SE 1012.6 910.8 0 6 631.48 55
2026-05-06 14:29:00 31 20.6 6.8 9.4 E 1012.8 911.01 0 5 552.68 54
2026-05-06 14:26:00 30.9 20.8 3.6 5.4 E 1013 911.21 0 6 634.22 55
2026-05-06 14:23:00 30.7 20 3.6 5.4 E 1013 911.21 0 6 653.6 53
2026-05-06 14:20:00 30.6 19.9 0.4 1.8 ESE 1012.8 911.01 0 2 289.6 53
2026-05-06 14:17:00 30.4 20.3 2.2 3.6 SSE 1012.9 911.11 0 2 205.67 55
2026-05-06 14:14:00 30.1 20.1 0.4 1.8 SE 1013.21 911.41 0 1 174.89 55
2026-05-06 14:11:00 30.2 20.2 7.9 9.4 N 1013.41 911.62 0 1 157.64 55
2026-05-06 14:08:00 30.2 20.2 3.6 5.4 SSE 1013.31 911.52 0 1 127.99 55
2026-05-06 14:05:00 30.2 20.2 3.6 3.6 E 1013.31 911.52 0 1 114.1 55
2026-05-06 14:02:00 30.1 19.8 0.7 1.8 SE 1013.41 911.62 0 0 100.25 54
2026-05-06 13:59:00 30.1 20.1 1.8 3.6 SE 1013.61 911.79 0 0 98.37 55
2026-05-06 13:56:00 30.1 20.1 3.6 5.4 ESE 1013.41 911.62 0 0 97.21 55
2026-05-06 13:53:00 30.1 19.8 2.9 3.6 SE 1013.51 911.72 0 0 99.73 54
2026-05-06 13:50:00 30.3 20.2 2.5 5.4 S 1013.51 911.72 0 0 100.58 55
2026-05-06 13:47:00 30.2 19.9 4.3 5.4 ENE 1013.72 911.89 0 1 103.24 54
2026-05-06 13:44:00 30.2 20.2 2.9 5.4 E 1013.51 911.72 0 0 99.7 55
2026-05-06 13:41:00 30.1 20.1 1.1 1.8 SSE 1013.61 911.79 0 0 95.6 55
2026-05-06 13:38:00 30.2 19.9 3.6 7.2 SE 1013.61 911.79 0 0 92.96 54
2026-05-06 13:35:00 30.3 19.9 4 5.4 ESE 1013.82 911.99 0 0 90.62 54
2026-05-06 13:32:00 30.1 19.8 2.2 3.6 SE 1013.72 911.89 0 0 85.91 54
2026-05-06 13:29:00 30.1 20.1 2.5 3.6 ENE 1013.82 911.99 0 0 82.23 55
2026-05-06 13:26:00 30.2 19.9 4.3 7.2 ENE 1013.82 911.99 0 0 84.5 54
2026-05-06 13:23:00 30.2 19.9 4.7 7.2 ENE 1014.09 912.29 0 0 90.98 54
2026-05-06 13:20:00 30.6 19.9 5 9.4 ESE 1013.82 911.99 0 0 92.36 53
2026-05-06 13:17:00 30.7 20.3 3.6 3.6 E 1013.99 912.19 0 0 93.37 54
2026-05-06 13:14:00 31.1 20.4 1.4 1.8 ESE 1014.09 912.29 0 0 96.41 53
2026-05-06 13:11:00 31.2 20.5 0.7 1.8 ESE 1014.19 912.4 0 1 119.35 53
2026-05-06 13:08:00 31.6 20.5 4.7 5.4 SE 1014.19 912.4 0 1 192.25 52
2026-05-06 13:05:00 32.1 20.4 4 5.4 E 1014.09 912.29 0 2 282.14 50
2026-05-06 13:02:00 32.4 20.3 5 11.2 ESE 1014.19 912.4 0 5 522.47 49
2026-05-06 12:59:00 31.5 19.8 2.5 3.6 SE 1013.99 912.19 0 7 755.19 50
2026-05-06 12:56:00 31.4 20 4 5.4 SE 1014.49 912.7 0 4 427.56 51
2026-05-06 12:53:00 31.5 20.1 5 5.4 ESE 1014.19 912.4 0 7 807.45 51
2026-05-06 12:50:00 32 20.6 4.3 5.4 E 1014.29 912.5 0 8 854.96 51
2026-05-06 12:47:00 32.1 20.4 2.9 3.6 SE 1014.6 912.8 0 8 852.83 50
2026-05-06 12:44:00 31.8 20.4 1.8 1.8 SE 1014.6 912.8 0 8 823.5 51
2026-05-06 12:41:00 32 20.6 4 5.4 NE 1014.6 912.8 0 4 497.93 51
2026-05-06 12:38:00 32.6 20.5 7.2 9.4 NNE 1014.7 912.9 0 7 723.3 49
2026-05-06 12:35:00 32.2 20.5 2.9 5.4 ESE 1014.6 912.8 0 8 855.12 50
2026-05-06 12:33:00 32 20.6 2.5 3.6 ENE 1014.6 912.8 0 8 837.13 51
2026-05-06 12:29:00 32.2 20.5 4.7 7.2 SE 1014.8 913.01 0 8 829.38 50
2026-05-06 12:26:00 32.5 20.4 2.2 3.6 SSE 1014.7 912.9 0 7 814.36 49
2026-05-06 12:23:00 32.6 20.5 2.9 5.4 NE 1014.9 913.11 0 8 840.39 49
2026-05-06 12:20:00 31.8 20.4 2.2 3.6 SE 1014.9 913.11 0 8 838.75 51
2026-05-06 12:17:00 31.6 20.2 1.8 3.6 ESE 1015 913.21 0 5 599.02 51
2026-05-06 12:14:00 31.7 20.3 3.6 5.4 NE 1015 913.21 0 8 854.36 51
2026-05-06 12:11:00 31.4 20 1.8 1.8 SSE 1015 913.21 0 7 760.09 51
2026-05-06 12:08:00 31.1 20.4 0.4 1.8 SE 1015.31 913.51 0 7 779.52 53
2026-05-06 12:05:00 30.4 20 0.4 1.8 SE 1015.1 913.31 0 7 758.86 54
2026-05-06 12:02:00 30.4 20.3 4 7.2 SE 1015.31 913.51 0 7 740.29 55
2026-05-06 11:59:00 30.4 20.3 2.9 3.6 SSE 1015.51 913.72 0 2 266.39 55
2026-05-06 11:56:00 30.3 19.6 1.4 1.8 SE 1015.31 913.51 0 6 713.09 53
2026-05-06 11:53:00 30.6 19.3 4.7 5.4 NE 1015.41 913.61 0 2 292.92 51
2026-05-06 11:50:00 30.5 19.8 3.6 5.4 ESE 1015.61 913.82 0 2 295.75 53
2026-05-06 11:47:00 30.5 20.1 0.4 1.8 E 1015.41 913.61 0 3 329.68 54
2026-05-06 11:44:00 30.1 20.9 1.4 1.8 ESE 1015.61 913.82 0 4 510.17 58
2026-05-06 11:41:00 30.2 20.7 2.2 3.6 ESE 1015.71 913.89 0 2 260.69 57
2026-05-06 11:38:00 29.9 20.7 0 0 SE 1015.61 913.82 0 2 237.74 58
2026-05-06 11:35:00 30.4 20.6 4.7 7.2 SSE 1015.82 913.99 0 2 218.64 56
2026-05-06 11:33:00 30.7 20.6 2.2 3.6 ESE 1015.61 913.82 0 1 188.55 55
2026-05-06 11:29:00 31 20.9 8.3 11.2 NW 1015.71 913.89 0 7 769.79 55
2026-05-06 11:26:00 31.1 21.6 2.2 3.6 SE 1015.61 913.82 0 7 798.75 57
2026-05-06 11:23:00 30.6 21.4 2.2 3.6 ESE 1015.71 913.89 0 7 776.21 58
2026-05-06 11:20:00 31.1 22.1 3.6 5.4 NNW 1015.82 913.99 0 7 754.48 59
2026-05-06 11:17:00 31.4 21.8 3.6 5.4 ENE 1015.92 914.09 0 7 749.98 57
2026-05-06 11:14:00 30.8 21.5 0.7 1.8 SE 1015.98 914.19 0 7 733.12 58
2026-05-06 11:11:00 30.3 21.1 2.2 5.4 N 1015.82 913.99 0 6 699.43 58
2026-05-06 11:08:00 29.9 20.7 5.4 5.4 ENE 1015.92 914.09 0 7 725.37 58
2026-05-06 11:05:00 30.1 20.9 6.8 9.4 NW 1015.92 914.09 0 2 248.6 58
2026-05-06 11:02:00 29.9 20.7 4 5.4 SE 1015.92 914.09 0 6 684.05 58
2026-05-06 10:59:00 30.1 20.9 2.5 3.6 SSE 1015.98 914.19 0 6 682.9 58
2026-05-06 10:56:00 29.9 21 3.6 3.6 NNE 1015.98 914.19 0 6 702.43 59
2026-05-06 10:53:00 30.5 21.3 8.3 11.2 N 1015.98 914.19 0 4 428.51 58
2026-05-06 10:50:00 30.2 21.6 2.5 3.6 NE 1015.92 914.09 0 6 680.29 60
2026-05-06 10:47:00 29.8 21.4 3.2 5.4 SSE 1015.98 914.19 0 6 675.04 61
2026-05-06 10:44:00 30.1 21.7 5.4 7.2 SW 1015.98 914.19 0 6 671.85 61
2026-05-06 10:41:00 30.4 21.7 4 5.4 SE 1015.98 914.19 0 6 650.38 60
2026-05-06 10:38:00 30 21.4 2.2 3.6 E 1015.92 914.09 0 5 583.8 60

Hosur Weather Data by Date. Available from 14 December 2024

Share this Post:

ஓசூர் செய்திகள், Hosur news video in Tamil, Latest Hosur news: